Weather History for Fort Morgan, CO

Change the Weather History Date:

Sunday, September 29, 2013

  Actual Average (KAKO) Record (KAKO)
Temperature  
Mean Temperature 56 °F 57 °F  
Max Temperature 75 °F 71 °F 90 °F (1994)
Min Temperature 36 °F 43 °F 20 °F (1985)
Degree Days  
Heating Degree Days 10    
Month to date heating degree days  
Cooling Degree Days 0    
Month to date cooling degree days  
Growing Degree Days 6 (Base 50)    
Moisture  
Dew Point 35 °F    
Average Humidity 52    
Maximum Humidity 91    
Minimum Humidity 14    
Precipitation  
Precipitation 0.00 in 0.03 in 0.64 in (1995)
Month to date precipitation 1.12  
Year to date precipitation 14.61  
Sea Level Pressure  
Sea Level Pressure 30.00 in    
Wind  
Wind Speed 6 mph (WSW)    
Max Wind Speed 10 mph    
Max Gust Speed -    
Visibility 10 miles    
Events      
T = Trace of Precipitation, MM = Missing Value Source: NWS Daily Summary

Daily Weather History Graph

Daily Weather History Graph

Search for Another Location

Airport:

Trip Planner

Search our weather history database for the weather conditions in past years. The results will help you decide how hot, cold, wet, or windy it might be!

Date:

Astronomy

Sep. 29, 2013 Rise Set
Actual Time 6:49 AM MDT 6:40 PM MDT
Civil Twilight 6:22 AM MDT 7:07 PM MDT
Nautical Twilight 5:51 AM MDT 7:38 PM MDT
Astronomical Twilight 5:19 AM MDT 8:10 PM MDT
Moon 1:32 AM MDT (9/29) 3:38 PM MDT (9/29)
Length of Visible Light 12h 44m
Length of Day
11h 50m
Waning Crescent, 26% of the Moon is Illuminated
Sep 29
Waning Crescent
Oct 4
New
Oct 11
First Quarter
Oct 18
Full
Oct 26
Last Quarter

Hourly Weather History & Observations

Time (MDT) Temp. Windchill Dew Point Humidity Pressure Visibility Wind Dir Wind Speed Gust Speed Precip Events Conditions
12:15 AM 47.1 °F - 36.0 °F 65% 30.13 in 10.0 mi WSW 4.6 mph - N/A   Clear
12:35 AM 46.6 °F - 35.8 °F 66% 30.13 in 10.0 mi West 5.8 mph - N/A   Clear
12:55 AM 45.5 °F 41.8 °F 36.1 °F 70% 30.13 in 10.0 mi West 6.9 mph - N/A   Clear
1:15 AM 43.9 °F 39.3 °F 36.5 °F 75% 30.13 in 10.0 mi West 8.1 mph - N/A   Clear
1:35 AM 44.6 °F 40.2 °F 36.0 °F 72% 30.13 in 10.0 mi West 8.1 mph - N/A   Clear
1:55 AM 44.1 °F 39.5 °F 35.4 °F 72% 30.12 in 10.0 mi West 8.1 mph - N/A   Clear
2:15 AM 44.1 °F 40.1 °F 34.7 °F 70% 30.11 in 10.0 mi West 6.9 mph - N/A   Clear
2:35 AM 43.0 °F 38.8 °F 34.7 °F 73% 30.10 in 10.0 mi West 6.9 mph - N/A   Clear
2:55 AM 42.3 °F 37.9 °F 34.7 °F 75% 30.09 in 10.0 mi West 6.9 mph - N/A   Clear
3:15 AM 43.0 °F 38.8 °F 33.4 °F 69% 30.09 in 10.0 mi WSW 6.9 mph - N/A   Clear
3:35 AM 41.0 °F 34.7 °F 33.8 °F 76% 30.09 in 10.0 mi West 10.4 mph - N/A   Clear
3:55 AM 40.6 °F 35.4 °F 33.8 °F 77% 30.09 in 10.0 mi West 8.1 mph - N/A   Clear
4:15 AM 39.6 °F 33.5 °F 33.8 °F 80% 30.09 in 10.0 mi WSW 9.2 mph - N/A   Clear
4:35 AM 38.5 °F 33.4 °F 34.2 °F 84% 30.08 in 10.0 mi WSW 6.9 mph - N/A   Clear
4:55 AM 39.2 °F 33.6 °F 34.2 °F 82% 30.07 in 10.0 mi WSW 8.1 mph - N/A   Clear
5:15 AM 38.5 °F 34.1 °F 33.6 °F 83% 30.08 in 10.0 mi WSW 5.8 mph - N/A   Clear
5:35 AM 37.8 °F 31.3 °F 34.0 °F 86% 30.07 in 10.0 mi SW 9.2 mph - N/A   Clear
5:55 AM 37.2 °F 32.6 °F 33.8 °F 87% 30.07 in 10.0 mi NNE 5.8 mph - N/A   Clear
6:15 AM 36.7 °F 31.2 °F 34.0 °F 90% 30.07 in 10.0 mi West 6.9 mph - N/A   Clear
6:35 AM 37.4 °F 33.8 °F 34.0 °F 87% 30.07 in 10.0 mi WSW 4.6 mph - N/A   Clear
6:55 AM 36.1 °F 33.5 °F 33.6 °F 91% 30.06 in 10.0 mi WSW 3.5 mph - N/A   Clear
7:15 AM 37.4 °F - 35.1 °F 91% 30.06 in 10.0 mi Calm Calm - N/A   Clear
7:35 AM 39.7 °F 34.9 °F 36.5 °F 88% 30.07 in 10.0 mi WSW 6.9 mph - N/A   Clear
7:55 AM 42.3 °F 39.4 °F 36.7 °F 81% 30.07 in 10.0 mi SW 4.6 mph - N/A   Clear
8:15 AM 44.8 °F 40.4 °F 38.8 °F 80% 30.08 in 10.0 mi West 8.1 mph - N/A   Clear
8:35 AM 46.8 °F - 39.7 °F 77% 30.07 in 10.0 mi WSW 5.8 mph - N/A   Clear
8:55 AM 48.7 °F - 40.8 °F 74% 30.06 in 10.0 mi WSW 8.1 mph - N/A   Clear
9:15 AM 50.2 °F - 39.9 °F 68% 30.06 in 10.0 mi SW 6.9 mph - N/A   Clear
9:35 AM 52.3 °F - 41.0 °F 65% 30.07 in 10.0 mi West 10.4 mph - N/A   Clear
9:55 AM 54.7 °F - 42.1 °F 62% 30.06 in 10.0 mi WSW 8.1 mph - N/A   Clear
10:15 AM 57.6 °F - 42.8 °F 58% 30.06 in 10.0 mi WSW 4.6 mph - N/A   Clear
10:35 AM 62.2 °F - 42.3 °F 48% 30.05 in 10.0 mi West 5.8 mph - N/A   Clear
10:55 AM 64.2 °F - 41.7 °F 44% 30.04 in 10.0 mi WSW 6.9 mph - N/A   Clear
11:15 AM 65.3 °F - 40.8 °F 41% 30.04 in 10.0 mi Calm Calm - N/A   Clear
11:35 AM 66.4 °F - 40.6 °F 39% 30.03 in 10.0 mi WNW 3.5 mph - N/A   Clear
11:55 AM 67.6 °F - 40.6 °F 37% 30.01 in 10.0 mi SSW 3.5 mph - N/A   Clear
12:15 PM 69.8 °F - 39.7 °F 33% 30.00 in 10.0 mi South 5.8 mph - N/A   Clear
12:35 PM 70.9 °F - 36.5 °F 28% 29.99 in 10.0 mi SSW 4.6 mph - N/A   Clear
12:55 PM 72.3 °F - 28.2 °F 19% 29.98 in 10.0 mi SSW 4.6 mph - N/A   Clear
1:15 PM 73.4 °F - 32.4 °F 22% 29.97 in 10.0 mi SSW 3.5 mph - N/A   Clear
1:35 PM 73.6 °F - 34.0 °F 23% 29.96 in 10.0 mi South 3.5 mph - N/A   Clear
1:55 PM 73.9 °F - 28.2 °F 18% 29.96 in 10.0 mi Calm Calm - N/A   Clear
2:15 PM 75.2 °F - 28.4 °F 18% 29.95 in 10.0 mi Calm Calm - N/A   Clear
2:35 PM 74.8 °F - 25.0 °F 16% 29.94 in 10.0 mi Calm Calm - N/A   Clear
2:55 PM 74.8 °F - 25.9 °F 16% 29.94 in 10.0 mi Calm Calm - N/A   Clear
3:15 PM 75.7 °F - 27.1 °F 17% 29.93 in 10.0 mi South 5.8 mph - N/A   Clear
3:35 PM 75.4 °F - 27.0 °F 17% 29.93 in 10.0 mi SE 5.8 mph - N/A   Clear
3:55 PM 75.6 °F - 23.5 °F 14% 29.93 in 10.0 mi ESE 6.9 mph - N/A   Clear
4:15 PM 75.6 °F - 26.8 °F 16% 29.93 in 10.0 mi SE 3.5 mph - N/A   Clear
4:35 PM 72.7 °F - 25.7 °F 17% 29.92 in 10.0 mi SE 5.8 mph - N/A   Clear
4:55 PM 70.7 °F - 29.7 °F 22% 29.92 in 10.0 mi ESE 4.6 mph - N/A   Clear
5:15 PM 69.1 °F - 31.8 °F 25% 29.92 in 10.0 mi ESE 4.6 mph - N/A   Clear
5:35 PM 70.0 °F - 34.9 °F 28% 29.91 in 10.0 mi East 4.6 mph - N/A   Clear
5:55 PM 67.6 °F - 35.2 °F 30% 29.91 in 10.0 mi Calm Calm - N/A   Clear
6:15 PM 64.4 °F - 34.0 °F 32% 29.91 in 10.0 mi ESE 5.8 mph - N/A   Clear
6:35 PM 64.0 °F - 32.7 °F 31% 29.91 in 10.0 mi ESE 5.8 mph - N/A   Clear
6:55 PM 63.7 °F - 32.0 °F 31% 29.91 in 10.0 mi ESE 5.8 mph - N/A   Clear
7:15 PM 61.9 °F - 32.0 °F 33% 29.90 in 10.0 mi SE 4.6 mph - N/A   Clear
7:35 PM 62.2 °F - 32.7 °F 33% 29.89 in 10.0 mi South 5.8 mph - N/A   Clear
7:55 PM 61.9 °F - 32.7 °F 34% 29.89 in 10.0 mi Calm Calm - N/A   Clear
8:35 PM 60.4 °F - 35.2 °F 39% 29.89 in 10.0 mi Calm Calm - N/A   Clear
8:55 PM 60.8 °F - 34.0 °F 37% 29.90 in 10.0 mi Calm Calm - N/A   Clear
9:15 PM 61.5 °F - 32.9 °F 34% 29.91 in 10.0 mi Calm Calm - N/A   Clear
9:35 PM 58.5 °F - 36.0 °F 43% 29.91 in 10.0 mi Calm Calm - N/A   Clear
9:55 PM 59.4 °F - 36.0 °F 42% 29.91 in 10.0 mi West 5.8 mph - N/A   Clear
10:15 PM 54.3 °F - 39.9 °F 58% 29.91 in 10.0 mi West 5.8 mph - N/A   Clear
10:35 PM 54.9 °F - 39.2 °F 56% 29.92 in 10.0 mi West 5.8 mph - N/A   Clear
10:55 PM 53.6 °F - 40.3 °F 61% 29.94 in 10.0 mi NNE 3.5 mph - N/A   Clear
11:15 PM 53.8 °F - 39.9 °F 59% 29.94 in 10.0 mi WNW 3.5 mph - N/A   Clear
11:35 PM 56.1 °F - 37.8 °F 50% 29.93 in 10.0 mi NW 6.9 mph - N/A   Clear
11:55 PM 56.7 °F - 37.2 °F 48% 29.93 in 10.0 mi West 5.8 mph - N/A   Clear